[[{"header":{"parameterUnit":"m.s-1","parameterCategory":1,"la1":30.2991,"la2":30.254,"lo1":-89.0895,"lo2":-89.0444,"dy":0.0017,"dx":0.0017,"nx":28,"ny":28,"refTime":"2024-03-11T21:00:00:Z","depth":0,"parameterNumber":2,"parameterNumberName":"U-component_of_WINDS"},"data":[0,0,0,0,0,0,0,0,0,0,0,0,0,0,0,0,0,0,0,0,0,0,0,0,0,0,0,0,0,0,0,0,0,0,0,0,0,0,0,0,0,0,0,0,0,0,0,0,0,0,0,0,0,0,0,0,0,0,-2.2433,-2.2432,0,-2.2367,-2.2366,-2.2365,-2.2244,-2.2242,-2.2239,-2.2237,-2.2173,-2.2173,-2.2173,0,0,0,0,0,0,0,0,0,0,0,0,0,-2.2458,-2.2459,-2.2433,-2.2432,-2.2431,-2.2367,-2.2366,-2.2365,-2.2244,-2.2242,-2.2239,-2.2236,-2.2172,-2.2173,-2.2174,0,0,0,0,0,0,0,0,0,0,0,0,0,-2.2426,-2.2459,-2.2433,-2.2363,-2.2356,-2.2367,-2.2366,-2.2365,-2.2245,-2.2241,-2.2238,-2.2235,-2.2172,-2.2173,-2.2174,-2.2248,0,0,-2.2176,-2.2176,0,0,0,0,0,0,0,0,-2.2428,-2.2425,-2.2374,-2.2368,-2.236,-2.231,-2.2351,-2.2326,-2.2246,-2.2287,-2.2237,-2.2233,-2.2221,-2.2218,-2.2213,-2.2245,-2.2242,-2.2176,-2.2176,-2.2176,-2.2177,0,0,0,0,0,0,0,-2.243,-2.2427,-2.2406,-2.2374,-2.2365,-2.2336,-2.2328,-2.2346,-2.2275,-2.2283,-2.2274,-2.2268,-2.2217,-2.2213,-2.2211,-2.2241,-2.2176,-2.2176,-2.2177,-2.2177,-2.2333,-2.2336,0,0,0,0,0,0,-2.2442,-2.243,-2.2409,-2.2405,-2.2386,-2.2339,-2.2329,-2.233,-2.2274,-2.2262,-2.2271,-2.2263,-2.2213,-2.221,-2.2208,-2.2292,-2.2176,-2.2177,-2.2178,-2.2329,-2.2334,-2.2338,0,0,0,0,0,0,-2.2443,-2.2441,-2.2411,-2.2415,-2.2409,-2.2342,-2.2344,-2.233,-2.2326,-2.2265,-2.2252,-2.228,-2.221,-2.2207,-2.2239,-2.2288,-2.2177,-2.2178,-2.2325,-2.233,-2.2336,-2.2461,0,0,0,0,0,0,-2.2444,-2.2442,-2.2469,-2.2416,-2.2409,-2.2443,-2.2346,-2.2331,-2.2327,-2.2315,-2.227,-2.2259,-2.2207,-2.2239,-2.224,-2.2287,-2.2179,-2.232,-2.2327,-2.2334,-2.2453,-2.2471,-2.2486,0,0,0,0,0,-2.2446,-2.2507,-2.2471,-2.2469,-2.244,-2.2446,-2.2442,-2.238,-2.2331,-2.2358,-2.232,-2.226,-2.2283,-2.2243,-2.2243,-2.2292,-2.2317,-2.2325,-2.2333,-2.2445,-2.2467,-2.2486,0,0,0,0,0,0,-2.2568,-2.2499,-2.2458,-2.2504,-2.2482,-2.2425,-2.2457,-2.2405,-2.2397,-2.2387,-2.2312,-2.2303,-2.2345,-2.2321,-2.2278,-2.2362,-2.2291,-2.2299,-2.2376,-2.2396,-2.2412,-2.2417,-2.2179,0,0,0,0,0,-2.26,-2.2609,-2.2549,-2.2595,-2.2586,-2.2524,-2.2524,-2.2479,-2.2453,-2.2443,-2.2406,-2.2385,-2.2387,-2.239,-2.2389,-2.2449,-2.2438,-2.2482,-2.2499,-2.2513,-2.2522,-2.2554,-2.2573,-2.2365,-2.2365,-2.2365,0,0,-2.2667,-2.263,-2.2641,-2.2619,-2.2596,-2.2609,-2.2517,-2.2533,-2.2542,-2.2446,-2.2474,-2.2447,-2.2418,-2.2465,-2.2483,-2.2446,-2.2577,-2.2524,-2.2536,-2.2536,-2.2564,-2.2584,-2.2602,-2.2371,-2.237,-2.2369,0,0,-2.2795,-2.2768,-2.2804,-2.2784,-2.275,-2.2709,-2.2718,-2.267,-2.2648,-2.2675,-2.2603,-2.2614,-2.2619,-2.2601,-2.2593,-2.2718,-2.2663,-2.2719,-2.2807,-2.2839,-2.2855,-2.2869,-2.2915,-2.2932,-2.2728,-2.2728,-2.2729,0,-2.2882,-2.2897,-2.283,-2.2851,-2.2844,-2.2758,-2.2795,-2.2779,-2.2747,-2.2746,-2.2704,-2.271,-2.2684,-2.2726,-2.2757,-2.2753,-2.2762,-2.2724,-2.2858,-2.2871,-2.2884,-2.2926,-2.2943,-2.2735,-2.2735,-2.2734,-2.2733,0,-2.3007,-2.3018,-2.3052,-2.3023,-2.302,-2.305,-2.2989,-2.2994,-2.295,-2.2914,-2.2944,-2.291,-2.2901,-2.2908,-2.2865,-2.2945,-2.2923,-2.2871,-2.2798,-2.2912,-2.2951,-2.2966,-2.2746,-2.2743,-2.2741,-2.2739,0,0,-2.3208,-2.3143,-2.3157,-2.3144,-2.3102,-2.311,-2.3137,-2.3127,-2.3134,-2.3116,-2.3137,-2.3145,-2.3097,-2.3088,-2.3043,-2.3071,-2.3173,-2.3015,-2.3013,-2.3047,-2.3261,-2.3301,-2.3321,-2.3137,-2.314,-2.3142,-2.3264,0,-2.3328,-2.3367,-2.3309,-2.3363,-2.3374,-2.3293,-2.3316,-2.3294,-2.3262,-2.3267,-2.3231,-2.3238,-2.3174,-2.3168,-2.3192,-2.3156,-2.3215,-2.3146,-2.3158,-2.3159,-2.3168,-2.334,-2.3382,-2.3498,-2.3278,-2.3281,-2.3283,0,-2.3471,-2.346,-2.3516,-2.3472,-2.3474,-2.3496,-2.3483,-2.3489,-2.3464,-2.3438,-2.3429,-2.3376,-2.34,-2.333,-2.3364,-2.3319,-2.332,-2.3303,-2.3306,-2.3305,-2.3228,-2.3345,-2.3534,-2.3552,-2.3306,-2.3304,-2.3302,0,-2.3614,-2.3613,-2.3646,-2.3637,-2.3587,-2.3605,-2.3585,-2.3555,-2.3554,-2.3544,-2.3543,-2.3536,-2.3533,-2.353,-2.3477,-2.343,-2.3518,-2.3443,-2.3499,-2.3501,-2.3521,-2.3521,-2.3714,-2.3522,-2.3522,-2.3521,-2.3521,0,-2.3753,-2.3791,-2.371,-2.373,-2.377,-2.3704,-2.3746,-2.3718,-2.3693,-2.3708,-2.3638,-2.3654,-2.3582,-2.3591,-2.355,-2.3585,-2.3584,-2.3566,-2.3554,-2.3572,-2.3575,-2.3572,-2.3563,-2.3526,-2.3525,-2.3524,-2.3523,0,-2.3919,-2.3866,-2.3897,-2.3848,-2.3836,-2.3868,-2.3826,-2.3844,-2.3807,-2.3827,-2.3828,-2.3772,-2.3778,-2.3725,-2.3722,-2.3695,-2.375,-2.3725,-2.3759,-2.3751,-2.3811,-2.3806,-2.4009,-2.4033,-2.3826,-2.3828,-2.383,0,-2.4012,-2.4038,-2.3992,-2.3996,-2.398,-2.3988,-2.3987,-2.3923,-2.3925,-2.3899,-2.392,-2.3921,-2.3919,-2.3934,-2.3894,-2.3892,-2.3866,-2.3937,-2.3865,-2.3883,-2.3868,-2.3868,-2.3871,-2.3953,-2.3955,-2.3957,-2.3959,0,-2.4182,-2.4155,-2.4154,-2.4146,-2.4146,-2.4137,-2.4123,-2.4131,-2.4062,-2.4068,-2.4074,-2.4072,-2.407,-2.4073,-2.4063,-2.4044,-2.3991,-2.3982,-2.3995,-2.4014,-2.4033,-2.4024,-2.3801,-2.3978,-2.3976,-2.3974,-2.3973,-2.3973,-2.4314,-2.4334,-2.4305,-2.4308,-2.4291,-2.428,-2.4295,-2.4261,-2.4264,-2.4256,-2.4219,-2.4233,-2.4208,-2.419,-2.4176,-2.4187,-2.4153,-2.4171,-2.4176,-2.4182,-2.4193,-2.4031,-2.4185,-2.4184,-2.4184,-2.4183,-2.4183,0,-2.4481,-2.4458,-2.4462,-2.4444,-2.4448,-2.4397,-2.4379,-2.4386,-2.4398,-2.4379,-2.4378,-2.4387,-2.439,-2.435,-2.4348,-2.4365,-2.4341,-2.4367,-2.4365,-2.4362,-2.4223,-2.4212,-2.4386,-2.4386,-2.4386,-2.4386,-2.4386,-2.4386,-2.4568,-2.46,-2.4571,-2.4595,-2.4572,-2.4584,-2.4579,-2.4569,-2.4554,-2.4566,-2.4568,-2.4542,-2.4516,-2.4512,-2.4513,-2.4501,-2.4505,-2.4539,-2.452,-2.4391,-2.4371,-2.4352,-2.4342,-2.454,-2.454,-2.4657,-2.4658,-2.4659]},{"header":{"parameterUnit":"m.s-1","parameterCategory":1,"la1":30.2991,"la2":30.254,"lo1":-89.0895,"lo2":-89.0444,"dy":0.0017,"dx":0.0017,"nx":28,"ny":28,"refTime":"2024-03-11T21:00:00:Z","depth":0,"parameterNumber":3,"parameterNumberName":"V-component_of_WINDS"},"data":[0,0,0,0,0,0,0,0,0,0,0,0,0,0,0,0,0,0,0,0,0,0,0,0,0,0,0,0,0,0,0,0,0,0,0,0,0,0,0,0,0,0,0,0,0,0,0,0,0,0,0,0,0,0,0,0,0,0,0.4026,0.4025,0,0.3973,0.3972,0.3972,0.3985,0.3986,0.3987,0.3988,0.3931,0.3929,0.3926,0,0,0,0,0,0,0,0,0,0,0,0,0,0.4136,0.4134,0.4026,0.4025,0.4024,0.3973,0.3972,0.3971,0.3984,0.3986,0.3987,0.3988,0.3932,0.3929,0.3926,0,0,0,0,0,0,0,0,0,0,0,0,0,0.4086,0.4134,0.4026,0.4025,0.4024,0.3973,0.3972,0.3971,0.3984,0.3986,0.3987,0.3989,0.3933,0.3929,0.3925,0.3872,0,0,0.3914,0.3913,0,0,0,0,0,0,0,0,0.4089,0.4082,0.4025,0.4025,0.4024,0.3987,0.399,0.3938,0.3984,0.3999,0.3988,0.3989,0.3948,0.3943,0.393,0.3869,0.3867,0.3914,0.3912,0.391,0.3909,0,0,0,0,0,0,0,0.4093,0.4085,0.4005,0.4025,0.4024,0.4026,0.4021,0.3981,0.3965,0.3998,0.3999,0.3992,0.3948,0.3933,0.3929,0.3866,0.3914,0.3911,0.3908,0.3907,0.3758,0.3757,0,0,0,0,0,0,0.4097,0.4087,0.4006,0.4003,0.4061,0.4023,0.4017,0.3997,0.3966,0.3963,0.3991,0.3993,0.3939,0.3933,0.3927,0.3861,0.391,0.3907,0.3904,0.376,0.3758,0.3756,0,0,0,0,0,0,0.4099,0.409,0.4008,0.4045,0.4035,0.402,0.3997,0.3995,0.3981,0.3961,0.3958,0.3979,0.394,0.3932,0.3885,0.3859,0.3905,0.3902,0.3762,0.3759,0.3757,0.373,0,0,0,0,0,0,0.4102,0.409,0.407,0.4045,0.4033,0.3968,0.3995,0.3993,0.3975,0.3977,0.3949,0.3946,0.3941,0.3891,0.3882,0.3855,0.3899,0.3764,0.3761,0.3758,0.3733,0.3727,0.3721,0,0,0,0,0,0.4106,0.4064,0.4069,0.4059,0.4007,0.3967,0.396,0.3956,0.3972,0.3951,0.3939,0.3947,0.3864,0.3886,0.3876,0.3848,0.3766,0.3762,0.3758,0.3736,0.3728,0.3722,0,0,0,0,0,0,0.4085,0.406,0.4066,0.4014,0.3992,0.3969,0.3942,0.3948,0.392,0.3923,0.3919,0.3912,0.3865,0.3852,0.3877,0.3794,0.3817,0.3811,0.3804,0.3796,0.3791,0.3794,0.3896,0,0,0,0,0,0.4074,0.4044,0.4024,0.398,0.3969,0.3958,0.394,0.3939,0.3916,0.3907,0.3891,0.3868,0.3837,0.3816,0.3787,0.3732,0.3726,0.3708,0.3702,0.3698,0.3692,0.3662,0.3653,0.3743,0.3743,0.3743,0,0,0.4051,0.4035,0.4015,0.3975,0.3959,0.3927,0.395,0.3915,0.3891,0.3901,0.3856,0.3844,0.3818,0.3767,0.3744,0.3755,0.3666,0.3693,0.3689,0.3685,0.3657,0.3648,0.3641,0.3741,0.3741,0.3742,0,0,0.3993,0.3978,0.394,0.3923,0.3898,0.3891,0.3882,0.3858,0.385,0.3806,0.3813,0.3784,0.3731,0.3712,0.3696,0.3633,0.3639,0.3624,0.3592,0.3563,0.3556,0.355,0.3526,0.3518,0.3619,0.3618,0.3618,0,0.3968,0.3921,0.3919,0.3884,0.3866,0.3875,0.3836,0.382,0.3786,0.3773,0.3787,0.3721,0.3704,0.3649,0.3634,0.3621,0.3609,0.3626,0.3557,0.3551,0.3545,0.3523,0.3514,0.3617,0.3617,0.3617,0.3617,0,0.389,0.3857,0.383,0.3798,0.3777,0.374,0.3733,0.3712,0.3713,0.3705,0.3659,0.364,0.3607,0.3594,0.3594,0.3539,0.3547,0.3559,0.3582,0.3535,0.3513,0.3505,0.3614,0.3615,0.3615,0.3616,0,0,0.3814,0.3784,0.3773,0.3759,0.3733,0.3707,0.3671,0.364,0.3622,0.3599,0.3568,0.3524,0.3535,0.3517,0.3515,0.349,0.3441,0.3505,0.3505,0.3493,0.3378,0.3367,0.3357,0.3445,0.3444,0.3443,0.3379,0,0.3753,0.3689,0.3688,0.3629,0.3599,0.3609,0.3577,0.3557,0.3549,0.3522,0.3513,0.3481,0.3499,0.3488,0.3464,0.3452,0.3417,0.3457,0.3415,0.3414,0.3419,0.3346,0.3335,0.3276,0.3371,0.337,0.3369,0,0.3672,0.3648,0.3586,0.3565,0.3553,0.3524,0.3496,0.347,0.3448,0.3444,0.3424,0.3427,0.339,0.3416,0.3364,0.3391,0.3374,0.3366,0.3364,0.3358,0.3387,0.3337,0.3257,0.3248,0.3356,0.3357,0.3358,0,0.3621,0.3573,0.353,0.3518,0.3493,0.3473,0.3461,0.3442,0.3423,0.3398,0.3386,0.3357,0.3341,0.3318,0.3313,0.3333,0.3261,0.3287,0.3255,0.3255,0.3238,0.3238,0.3152,0.323,0.323,0.323,0.3231,0,0.3552,0.3513,0.3507,0.3481,0.3438,0.3438,0.3396,0.3386,0.3368,0.3339,0.3347,0.3319,0.3315,0.3287,0.3283,0.3241,0.3234,0.3228,0.3227,0.3227,0.3227,0.3214,0.3217,0.3228,0.3229,0.3229,0.3229,0,0.3487,0.3481,0.3435,0.3416,0.341,0.338,0.3363,0.3337,0.3331,0.3295,0.3286,0.3275,0.3243,0.3237,0.3198,0.3195,0.3144,0.3148,0.3151,0.3151,0.3119,0.3122,0.302,0.3007,0.3095,0.3094,0.3093,0,0.3442,0.3413,0.3391,0.3373,0.336,0.3331,0.3313,0.3311,0.3292,0.3266,0.3243,0.3212,0.3186,0.3134,0.3122,0.3092,0.3095,0.3061,0.309,0.309,0.3092,0.3093,0.309,0.3055,0.3054,0.3053,0.3053,0,0.3362,0.3361,0.3334,0.3307,0.3285,0.3263,0.3243,0.3228,0.3224,0.3201,0.3169,0.3149,0.311,0.3079,0.305,0.3037,0.3044,0.3044,0.3035,0.3033,0.3035,0.3032,0.3134,0.3046,0.3047,0.3047,0.3047,0.3048,0.3304,0.3279,0.326,0.323,0.3215,0.3196,0.3171,0.3162,0.3135,0.3104,0.3105,0.3069,0.3049,0.3011,0.2997,0.2969,0.2979,0.2966,0.2963,0.2959,0.2955,0.3042,0.2964,0.2964,0.2964,0.2964,0.2964,0,0.3223,0.3212,0.3185,0.3157,0.3134,0.3144,0.3122,0.3102,0.307,0.3052,0.3027,0.2989,0.2959,0.2946,0.2916,0.2896,0.2898,0.2888,0.2888,0.2885,0.2948,0.2959,0.2887,0.2887,0.2887,0.2887,0.2887,0.2887,0.3178,0.3136,0.3133,0.3084,0.3073,0.3038,0.3025,0.3007,0.2992,0.2951,0.2926,0.2918,0.2902,0.2871,0.2844,0.2841,0.2829,0.2817,0.2815,0.2873,0.2881,0.2888,0.2898,0.2814,0.2814,0.2754,0.2753,0.2753]}]]